FW5449 Weather Reports


time (UTC)temp
C
wind
direction
speed
KPH
gust
KPH
rain 1hr
cm
rain 24hr
cm
rain mn
cm
humidity
%
barometer
mb
20260902141446 15 135 3.2 6.4 0.00 0.00 0.00 80 1007.3
20260902140950 15 133 4.8 8.0 0.00 0.00 0.00 79 1007.5
20260902140446 15 139 4.8 8.0 0.00 0.00 0.00 80 1007.4
20260902135945 15 134 4.8 8.0 0.00 0.00 0.00 81 1007.4
20260902135447 15 134 3.2 6.4 0.00 0.00 0.00 81 1007.4
20260902135206 15 133 3.2 6.4 0.00 0.00 0.00 82 1007.5
20260902134430 15 143 3.2 6.4 0.00 0.00 0.00 83 1007.6
20260902133921 14 130 1.6 6.4 0.00 0.00 0.00 84 1007.5
20260902133423 14 131 1.6 6.4 0.00 0.00 0.00 85 1007.6
20260902132918 14 106 0.0 4.8 0.00 0.00 0.00 87 1007.7
20260902132418 13 129 0.0 3.2 0.00 0.00 0.00 88 1007.8
20260902131914 14 129 3.2 6.4 0.00 0.00 0.00 86 1007.8
20260902131407 14 129 4.8 8.0 0.00 0.00 0.00 86 1007.9
20260902130903 13 147 3.2 8.0 0.00 0.00 0.00 88 1007.9
20260902130402 13 143 1.6 4.8 0.00 0.00 0.00 90 1008.0
20260902125900 13 143 0.0 3.2 0.00 0.00 0.00 90 1008.1
20260902125622 13 143 0.0 0.0 0.00 0.00 0.00 90 1008.2
20260902124900 13 143 0.0 1.6 0.00 0.00 0.00 90 1008.2
20260902124352 13 143 0.0 1.6 0.00 0.00 0.00 90 1008.2
20260902123853 13 143 0.0 1.6 0.00 0.00 0.00 90 1008.3
20260902123832 13 143 0.0 3.2 0.00 0.00 0.00 90 1008.4
20260902122832 13 143 0.0 3.2 0.00 0.00 0.00 90 1008.4
20260902122324 13 143 0.0 1.6 0.00 0.00 0.00 90 1008.5
20260902122313 13 143 0.0 1.6 0.00 0.00 0.00 90 1008.5
20260902121317 13 143 0.0 1.6 0.00 0.00 0.00 90 1008.6
20260902121302 13 143 0.0 1.6 0.00 0.00 0.00 90 1008.7
20260902120305 13 143 0.0 3.2 0.00 0.00 0.00 90 1008.7
20260902115748 13 143 1.6 3.2 0.00 0.00 0.00 90 1008.8
20260902115236 13 143 0.0 3.2 0.00 0.00 0.00 91 1008.9
20260902114734 13 143 0.0 0.0 0.00 0.00 0.00 91 1009.0
20260902114231 13 143 0.0 0.0 0.00 0.00 0.00 91 1008.9
20260902113731 13 143 0.0 0.0 0.00 0.00 0.00 91 1009.0
20260902113217 13 143 0.0 0.0 0.00 0.00 0.00 91 1009.0
20260902112708 13 143 0.0 0.0 0.00 0.00 0.00 91 1009.1
20260902112201 13 143 0.0 0.0 0.00 0.00 0.00 93 1009.1
20260902111912 13 143 0.0 0.0 0.00 0.00 0.00 93 1009.1
20260902111142 13 143 0.0 0.0 0.00 0.00 0.00 93 1009.1
20260902110642 13 143 0.0 0.0 0.00 0.00 0.00 93 1009.3
20260902110142 13 143 0.0 0.0 0.00 0.00 0.00 92 1009.4
20260902105627 13 143 0.0 0.0 0.00 0.00 0.00 91 1009.4
20260902105107 13 143 0.0 0.0 0.00 0.00 0.00 91 1009.5
20260902104603 13 143 0.0 0.0 0.00 0.00 0.00 91 1009.6
20260902104315 13 143 0.0 0.0 0.00 0.00 0.00 91 1009.7
20260902103539 13 143 0.0 0.0 0.00 0.00 0.00 90 1009.6
20260902103255 13 143 0.0 0.0 0.00 0.00 0.00 90 1009.7
20260902102531 13 143 0.0 0.0 0.00 0.00 0.00 90 1009.8
20260902102020 13 143 0.0 0.0 0.00 0.00 0.00 91 1009.8
20260902101519 13 143 0.0 0.0 0.00 0.00 0.00 90 1009.9
20260902101017 13 143 0.0 0.0 0.00 0.00 0.00 90 1009.8
20260902100515 13 143 0.0 0.0 0.00 0.00 0.00 90 1009.9
20260902100006 13 143 0.0 0.0 0.00 0.00 0.00 89 1009.9
20260902095503 13 143 0.0 3.2 0.00 0.00 0.00 89 1009.9
20260902095006 13 143 1.6 3.2 0.00 0.00 0.00 88 1010.0
20260902094454 13 143 1.6 3.2 0.00 0.00 0.00 88 1010.1
20260902093952 13 143 1.6 3.2 0.00 0.00 0.00 88 1010.2
20260902093450 13 143 1.6 4.8 0.00 0.00 0.00 89 1010.3
20260902092950 13 143 1.6 4.8 0.00 0.00 0.00 89 1010.4
20260902092447 13 143 1.6 4.8 0.00 0.00 0.00 90 1010.5
20260902091942 13 143 1.6 4.8 0.00 0.00 0.00 89 1010.6
20260902091442 13 143 1.6 3.2 0.00 0.00 0.00 89 1010.6
20260902090946 13 143 1.6 3.2 0.00 0.00 0.00 89 1010.6
20260902090651 13 143 1.6 4.8 0.00 0.00 0.00 89 1010.6
20260902085926 13 143 3.2 4.8 0.00 0.00 0.00 90 1010.6
20260902085427 13 143 1.6 4.8 0.00 0.00 0.00 90 1010.7
20260902085410 13 143 1.6 4.8 0.00 0.00 0.00 90 1010.7
20260902084419 12 143 1.6 3.2 0.00 0.00 0.00 89 1010.8
20260902084141 12 143 3.2 6.4 0.00 0.00 0.00 90 1010.8
20260902083418 12 143 3.2 6.4 0.00 0.00 0.00 90 1010.8
20260902082917 12 143 1.6 4.8 0.00 0.00 0.00 90 1010.9
20260902082412 12 143 1.6 4.8 0.00 0.00 0.00 91 1010.9
20260902081906 12 143 0.0 3.2 0.00 0.00 0.00 92 1010.9
20260902081355 11 143 1.6 4.8 0.00 0.00 0.00 92 1010.8
20260902080836 11 143 0.0 4.8 0.00 0.00 0.00 91 1010.9
20260902080338 12 143 0.0 1.6 0.00 0.00 0.00 91 1010.9
20260902080049 12 143 0.0 3.2 0.00 0.00 0.00 90 1010.9
20260902075327 12 143 1.6 4.8 0.00 0.00 0.00 89 1010.9
20260902074814 12 143 1.6 4.8 0.00 0.00 0.00 90 1010.9
20260902074534 12 136 0.0 4.8 0.00 0.00 0.00 89 1010.9
20260902073814 12 262 0.0 0.0 0.00 0.00 0.00 90 1010.9
20260902073311 12 263 0.0 0.0 0.00 0.00 0.00 90 1011.0
20260902072753 12 262 0.0 0.0 0.00 0.00 0.00 90 1011.0
20260902072254 12 262 0.0 0.0 0.00 0.00 0.00 90 1011.1
20260902071741 12 262 0.0 0.0 0.00 0.00 0.00 90 1011.1
20260902071238 12 263 0.0 0.0 0.00 0.00 0.00 90 1011.2
20260902070738 12 263 0.0 0.0 0.00 0.00 0.00 89 1011.2
20260902070234 13 263 0.0 0.0 0.00 0.00 0.00 88 1011.2
20260902065732 13 262 0.0 0.0 0.00 0.00 0.00 87 1011.2
20260902065225 13 262 0.0 0.0 0.00 0.00 0.00 87 1011.2
20260902064717 13 263 0.0 0.0 0.00 0.00 0.00 87 1011.2
20260902064211 13 263 0.0 0.0 0.00 0.00 0.00 86 1011.2
20260902063702 14 262 0.0 0.0 0.00 0.00 0.00 86 1011.2
20260902063154 14 262 0.0 0.0 0.00 0.00 0.00 85 1011.3
20260902062655 15 263 0.0 0.0 0.00 0.00 0.00 84 1011.4
20260902062407 15 263 0.0 0.0 0.00 0.00 0.00 84 1011.4
20260902061633 15 263 0.0 0.0 0.00 0.00 0.00 84 1011.5
20260902061533 15 263 0.0 0.0 0.00 0.00 0.00 83 1011.5
20260902061156 15 263 0.0 0.0 0.00 0.00 0.00 83 1011.5
20260902060104 15 263 0.0 0.0 0.00 0.00 0.00 82 1011.7
20260902055549 15 262 0.0 0.0 0.00 0.00 0.00 82 1011.7
20260902055050 16 263 0.0 0.0 0.00 0.00 0.00 82 1011.7
20260902054545 16 262 0.0 0.0 0.00 0.00 0.00 81 1011.8
20260902054041 16 262 0.0 1.6 0.00 0.00 0.00 81 1011.9
20260902053540 16 262 0.0 1.6 0.00 0.00 0.00 81 1011.9
20260902053311 16 262 0.0 3.2 0.00 0.00 0.00 80 1012.0
20260902052532 16 263 1.6 4.8 0.00 0.00 0.00 80 1012.0
20260902052257 16 263 4.8 8.0 0.00 0.00 0.00 80 1012.0
20260902051518 16 291 4.8 11.3 0.00 0.00 0.00 80 1012.0
20260902051020 16 291 4.8 11.3 0.00 0.00 0.00 81 1012.1
20260902050519 16 267 4.8 8.0 0.00 0.00 0.00 81 1012.1
20260902050018 16 254 3.2 8.0 0.00 0.00 0.00 81 1012.1
20260902045517 16 253 1.6 6.4 0.00 0.00 0.00 81 1012.1
20260902045015 16 239 1.6 4.8 0.00 0.00 0.00 81 1012.0
20260902044505 16 239 0.0 4.8 0.00 0.00 0.00 81 1012.1
20260902044008 15 239 0.0 1.6 0.00 0.00 0.00 81 1012.1
20260902043458 15 239 1.6 3.2 0.00 0.00 0.00 81 1012.1
20260902042952 16 239 1.6 3.2 0.00 0.00 0.00 81 1012.1
20260902042919 15 239 0.0 3.2 0.00 0.00 0.00 81 1012.0
20260902041942 15 239 3.2 6.4 0.00 0.00 0.00 81 1011.9
20260902041437 15 239 4.8 6.4 0.00 0.00 0.00 81 1011.9
20260902040933 15 239 3.2 6.4 0.00 0.00 0.00 81 1011.8
20260902040433 16 281 1.6 4.8 0.00 0.00 0.00 80 1011.8
20260902035929 16 281 0.0 3.2 0.00 0.00 0.00 80 1011.6
20260902035426 16 281 0.0 1.6 0.00 0.00 0.00 79 1011.5
20260902034913 16 281 0.0 1.6 0.00 0.00 0.00 79 1011.5
20260902034413 16 281 0.0 3.2 0.00 0.00 0.00 79 1011.4
20260902033904 16 281 0.0 3.2 0.00 0.00 0.00 78 1011.4
20260902033341 16 281 0.0 3.2 0.00 0.00 0.00 78 1011.4
20260902033327 16 281 1.6 3.2 0.00 0.00 0.00 78 1011.4
20260902032339 16 281 1.6 4.8 0.00 0.00 0.00 78 1011.4
20260902031834 16 281 1.6 4.8 0.00 0.00 0.00 78 1011.4
20260902031822 16 281 3.2 4.8 0.00 0.00 0.00 77 1011.3
20260902030827 16 281 3.2 6.4 0.00 0.00 0.00 77 1011.4
20260902030321 17 281 3.2 6.4 0.00 0.00 0.00 76 1011.3
20260902025819 17 281 3.2 6.4 0.00 0.00 0.00 76 1011.3
20260902025322 17 311 3.2 8.0 0.00 0.00 0.00 75 1011.4
20260902024810 17 286 4.8 9.7 0.00 0.00 0.00 75 1011.4
20260902024309 17 275 4.8 9.7 0.00 0.00 0.00 75 1011.4
20260902023808 17 291 4.8 12.9 0.00 0.00 0.00 74 1011.5
20260902023308 17 299 3.2 12.9 0.00 0.00 0.00 74 1011.5
20260902022807 17 281 4.8 8.0 0.00 0.00 0.00 73 1011.5
20260902022306 17 281 4.8 11.3 0.00 0.00 0.00 73 1011.5
20260902021810 17 260 3.2 11.3 0.00 0.00 0.00 73 1011.4
20260902021523 18 281 3.2 12.9 0.00 0.00 0.00 73 1011.4
20260902020801 18 291 4.8 12.9 0.00 0.00 0.00 72 1011.4
20260902020302 18 315 4.8 12.9 0.00 0.00 0.00 73 1011.4
20260902015803 18 341 6.4 12.9 0.00 0.00 0.00 72 1011.4
20260902015258 18 301 4.8 12.9 0.00 0.00 0.00 71 1011.4
20260902014759 18 297 4.8 9.7 0.00 0.00 0.00 71 1011.3
20260902014258 18 297 4.8 8.0 0.00 0.00 0.00 71 1011.4
20260902014021 18 281 4.8 11.3 0.00 0.00 0.00 72 1011.3
20260902013522 18 291 4.8 12.9 0.00 0.00 0.00 71 1011.4
20260902013018 18 298 6.4 14.5 0.00 0.00 0.00 71 1011.3
20260902012253 18 343 6.4 14.5 0.00 0.00 0.00 71 1011.4
20260902011753 18 328 6.4 12.9 0.00 0.00 0.00 72 1011.4
20260902011252 18 316 6.4 14.5 0.00 0.00 0.00 71 1011.3
20260902010743 18 256 8.0 16.1 0.00 0.00 0.00 71 1011.3
20260902010506 18 262 9.7 16.1 0.00 0.00 0.00 71 1011.3
20260902005744 18 263 9.7 16.1 0.00 0.00 0.00 70 1011.2
20260902005243 18 297 8.0 16.1 0.00 0.00 0.00 70 1011.1
20260902004742 18 286 8.0 17.7 0.00 0.00 0.00 69 1011.2
20260902004239 18 322 9.7 17.7 0.00 0.00 0.00 69 1011.2
20260902003739 19 291 9.7 20.9 0.00 0.00 0.00 69 1011.2
20260902003458 19 249 9.7 20.9 0.00 0.00 0.00 68 1011.2
20260902002733 19 257 9.7 16.1 0.00 0.00 0.00 67 1011.2
20260902002229 19 277 9.7 20.9 0.00 0.00 0.00 67 1011.1
20260902001727 19 272 9.7 20.9 0.00 0.00 0.00 67 1011.1
20260902001228 19 324 8.0 19.3 0.00 0.00 0.00 67 1011.0
20260902000727 19 241 8.0 19.3 0.00 0.00 0.00 67 1011.0
20260902000226 19 222 8.0 19.3 0.00 0.00 0.00 68 1011.0
20260901235943 19 235 9.7 19.3 0.00 0.00 0.00 68 1010.9
20260901235216 19 291 9.7 19.3 0.00 0.00 0.00 68 1011.0
20260901234714 19 261 9.7 14.5 0.00 0.00 0.00 66 1011.0
20260901234211 19 297 8.0 16.1 0.00 0.00 0.00 66 1010.9
20260901233711 19 270 8.0 16.1 0.00 0.00 0.00 66 1011.1
20260901233429 20 257 9.7 19.3 0.00 0.00 0.00 66 1011.0
20260901232710 19 286 11.3 19.3 0.00 0.00 0.00 67 1011.1
20260901232209 19 243 11.3 19.3 0.00 0.00 0.00 66 1011.0
20260901231928 19 332 11.3 19.3 0.00 0.00 0.00 68 1011.0
20260901231439 19 240 12.9 24.1 0.00 0.00 0.00 67 1011.1
20260901230707 19 281 12.9 24.1 0.00 0.00 0.00 67 1011.2
20260901230205 19 241 12.9 24.1 0.00 0.00 0.00 68 1011.1
20260901225707 19 245 12.9 24.1 0.00 0.00 0.00 68 1011.2
20260901225209 19 252 9.7 19.3 0.00 0.00 0.00 67 1011.2
20260901224704 19 243 9.7 19.3 0.00 0.00 0.00 67 1011.1
20260901224203 20 244 9.7 17.7 0.00 0.00 0.00 67 1011.1
20260901223703 20 264 8.0 17.7 0.00 0.00 0.00 66 1011.2
20260901223206 20 318 6.4 11.3 0.00 0.00 0.00 67 1011.3
20260901222705 19 281 6.4 9.7 0.00 0.00 0.00 67 1011.2
20260901222202 19 286 8.0 19.3 0.00 0.00 0.00 68 1011.1
20260901221705 18 291 11.3 22.5 0.00 0.00 0.00 68 1011.2
20260901221203 19 263 12.9 24.1 0.00 0.00 0.00 68 1011.2
20260901220701 19 247 11.3 20.9 0.00 0.00 0.00 65 1011.1
20260901220422 19 249 11.3 19.3 0.00 0.00 0.00 65 1011.1
20260901215657 19 286 9.7 19.3 0.00 0.00 0.00 65 1011.1
20260901215156 19 223 11.3 19.3 0.00 0.00 0.00 64 1011.0
20260901214655 20 226 8.0 19.3 0.00 0.00 0.00 64 1010.9
20260901214154 20 201 8.0 17.7 0.00 0.00 0.00 64 1011.0
20260901213654 19 211 9.7 19.3 0.00 0.00 0.00 65 1010.9
20260901213153 19 205 11.3 22.5 0.00 0.00 0.00 65 1011.0
20260901212653 19 204 9.7 22.5 0.00 0.00 0.00 64 1010.9
20260901212156 19 182 8.0 16.1 0.00 0.00 0.00 65 1011.0
20260901211655 18 193 9.7 16.1 0.00 0.00 0.00 65 1011.0
20260901211638 19 214 8.0 16.1 0.00 0.00 0.00 65 1011.1
20260901210909 18 234 8.0 17.7 0.00 0.00 0.00 65 1011.0
20260901210414 19 199 8.0 17.7 0.00 0.00 0.00 66 1011.0
20260901205648 19 243 6.4 14.5 0.00 0.00 0.00 65 1011.0
20260901205147 19 235 8.0 17.7 0.00 0.00 0.00 64 1011.0
20260901204645 19 212 6.4 17.7 0.00 0.00 0.00 65 1011.0
20260901204134 19 235 6.4 16.1 0.00 0.00 0.00 66 1011.1
20260901203850 19 249 8.0 16.1 0.00 0.00 0.00 66 1011.2
20260901203108 19 261 9.7 19.3 0.00 0.00 0.00 66 1011.2
20260901202601 18 281 9.7 19.3 0.00 0.00 0.00 65 1011.1
20260901202102 18 256 9.7 20.9 0.00 0.00 0.00 65 1011.2
20260901201604 19 257 11.3 20.9 0.00 0.00 0.00 65 1011.2
20260901201058 19 228 11.3 19.3 0.00 0.00 0.00 64 1011.3
20260901201048 19 216 11.3 19.3 0.00 0.00 0.00 63 1011.3
20260901200056 19 256 9.7 17.7 0.00 0.00 0.00 64 1011.3
20260901195554 18 231 11.3 19.3 0.00 0.00 0.00 64 1011.4
20260901195054 19 232 12.9 19.3 0.00 0.00 0.00 63 1011.3
20260901194552 19 185 11.3 20.9 0.00 0.00 0.00 62 1011.4
20260901194052 19 253 12.9 20.9 0.00 0.00 0.00 63 1011.5
20260901193551 19 204 12.9 20.9 0.00 0.00 0.00 62 1011.5
20260901193052 19 199 11.3 20.9 0.00 0.00 0.00 62 1011.5
20260901192551 19 203 11.3 24.1 0.00 0.00 0.00 64 1011.5
20260901192308 19 199 11.3 24.1 0.00 0.00 0.00 62 1011.4
20260901191810 18 181 11.3 19.3 0.00 0.00 0.00 62 1011.5
20260901191304 19 195 9.7 19.3 0.00 0.00 0.00 62 1011.5
20260901190547 19 188 11.3 19.3 0.00 0.00 0.00 63 1011.5
20260901190046 19 209 12.9 19.3 0.00 0.00 0.00 63 1011.5
20260901185544 18 179 9.7 19.3 0.00 0.00 0.00 65 1011.6
20260901185306 19 188 4.8 16.1 0.00 0.00 0.00 67 1011.7
20260901184543 18 171 6.4 16.1 0.00 0.00 0.00 69 1011.7
20260901184044 18 253 8.0 16.1 0.00 0.00 0.00 69 1011.7
20260901183544 17 183 8.0 14.5 0.00 0.00 0.00 70 1011.8
20260901183304 18 191 8.0 16.1 0.00 0.00 0.00 69 1011.8
20260901182542 18 250 11.3 19.3 0.00 0.00 0.00 71 1011.9
20260901182040 18 245 11.3 19.3 0.00 0.00 0.00 71 1011.7
20260901181540 18 274 9.7 16.1 0.00 0.00 0.00 71 1011.8
20260901181037 18 251 9.7 16.1 0.00 0.00 0.00 74 1011.8
20260901180537 18 226 8.0 16.1 0.00 0.00 0.00 74 1011.8
20260901180036 18 205 8.0 17.7 0.00 0.00 0.00 73 1011.8
20260901175537 18 224 9.7 20.9 0.00 0.00 0.00 73 1011.8
20260901175035 17 174 9.7 20.9 0.00 0.00 0.00 74 1011.9
20260901174536 17 210 9.7 17.7 0.00 0.00 0.00 76 1011.8
20260901174033 17 216 9.7 17.7 0.00 0.00 0.00 75 1011.8
20260901173533 17 209 8.0 17.7 0.00 0.00 0.00 76 1011.8
20260901173035 17 218 8.0 17.7 0.00 0.00 0.00 75 1011.8
20260901172532 17 200 8.0 17.7 0.00 0.00 0.00 76 1011.8
20260901172031 16 189 11.3 17.7 0.00 0.00 0.00 77 1011.8
20260901171531 16 220 11.3 17.7 0.00 0.00 0.00 78 1011.8
20260901171030 16 193 12.9 19.3 0.00 0.00 0.00 79 1011.9
20260901170530 16 214 12.9 24.1 0.00 0.00 0.00 80 1011.9
20260901170031 16 205 11.3 24.1 0.00 0.00 0.00 80 1011.8
20260901165530 16 196 9.7 16.1 0.00 0.00 0.00 80 1011.8
20260901165030 16 145 8.0 16.1 0.00 0.00 0.00 80 1011.8
20260901164530 16 196 8.0 16.1 0.00 0.00 0.00 80 1011.7
20260901164301 16 206 6.4 12.9 0.00 0.00 0.00 80 1011.7
20260901163530 16 192 6.4 14.5 0.00 0.00 0.00 80 1011.7
20260901163031 16 201 8.0 16.1 0.00 0.00 0.00 81 1011.7
20260901162530 16 189 6.4 16.1 0.00 0.00 0.00 82 1011.8
20260901162031 16 189 6.4 12.9 0.00 0.00 0.00 82 1011.8
20260901161530 16 203 6.4 12.9 0.00 0.00 0.00 82 1011.9
20260901161030 16 183 8.0 16.1 0.00 0.00 0.00 82 1011.9
20260901160530 16 153 8.0 16.1 0.00 0.00 0.00 82 1011.9
20260901160030 16 182 8.0 14.5 0.00 0.00 0.00 82 1011.9
20260901155756 15 141 6.4 14.5 0.00 0.00 0.00 82 1012.0
20260901155030 15 185 6.4 12.9 0.00 0.00 0.00 82 1012.0
20260901154531 15 178 8.0 12.9 0.00 0.00 0.00 82 1011.9
20260901154031 15 179 8.0 12.9 0.00 0.00 0.00 82 1011.9
20260901153530 15 180 6.4 12.9 0.00 0.00 0.00 83 1012.0
20260901153025 15 145 4.8 11.3 0.00 0.00 0.00 83 1011.9
20260901152523 15 170 3.2 9.7 0.00 0.00 0.00 83 1011.9
20260901152022 15 191 3.2 4.8 0.00 0.00 0.00 84 1011.8
20260901151738 15 174 3.2 6.4 0.00 0.00 0.00 84 1011.9
20260901151019 15 216 3.2 9.7 0.00 0.00 0.00 84 1011.8
20260901150733 15 186 4.8 9.7 0.00 0.00 0.00 85 1011.8
20260901150009 15 215 4.8 8.0 0.00 0.00 0.00 85 1011.8
20260901145510 15 254 4.8 9.7 0.00 0.00 0.00 85 1011.7
20260901145008 15 201 4.8 9.7 0.00 0.00 0.00 85 1011.7
20260901144504 15 232 4.8 6.4 0.00 0.00 0.00 85 1011.6
20260901144005 15 221 3.2 6.4 0.00 0.00 0.00 85 1011.7
20260901143947 15 222 4.8 6.4 0.00 0.00 0.00 86 1011.6
20260901142958 15 252 4.8 9.7 0.00 0.00 0.00 86 1011.5
20260901142458 15 237 4.8 9.7 0.00 0.00 0.00 85 1011.4
20260901141959 15 239 3.2 9.7 0.00 0.00 0.00 85 1011.5